Birch Beach, Minnesota
Current Conditions -  °F | °C
As of 4:53 PM on Thursday 18 Dec 2014 (Local Time) from KBDE Reporting Station
Overcast Overcast  
Wind Chill:   Ceiling: 1400
Heat Index: 18°   Visibility: 10mi
Dew Point: 12°   Wind: 7mph
Humidity: 78%   Direction: 180°S
Pressure: 30.21"   Gusts: NA
Location:  48.7484°N, 94.9438°W
Report Text: KBDE 182253Z AUTO 18006KT 10SM OVC014 M08/M11 A3021 RMK AO2 SLP255 T10781111 TSNO
Loading
Personal Weather Stations






























Interactive Weather Map New forecast layout! Learn more

10-Day Weather Forecast

Advertisements
Track Severe Weather on mobile